TimeCST,TemperatureF,Dew PointF,Humidity,Sea Level PressureIn,VisibilityMPH,Wind Direction,Wind SpeedMPH,Gust SpeedMPH,PrecipitationIn,Events,Conditions,WindDirDegrees,DateUTC
12:13 AM,-11.2,-18.4,70,30.29,10.0,North,5.8,-,N/A,,Overcast,350,2013-12-24 06:13:00
12:33 AM,-11.2,-18.4,70,30.29,10.0,North,4.6,-,N/A,,Overcast,360,2013-12-24 06:33:00
12:54 AM,-11.2,-18.4,70,30.29,10.0,North,4.6,-,N/A,,Overcast,360,2013-12-24 06:54:00
1:14 AM,-11.2,-18.4,70,30.28,10.0,North,4.6,-,N/A,,Overcast,10,2013-12-24 07:14:00
1:29 AM,-11.2,-16.6,77,30.28,10.0,NNE,3.5,-,N/A,,Overcast,20,2013-12-24 07:29:00
1:41 AM,-9.4,-16.6,71,30.28,10.0,North,3.5,-,N/A,,Overcast,10,2013-12-24 07:41:00
2:01 AM,-9.4,-16.6,71,30.28,7.0,North,3.5,-,N/A,,Overcast,350,2013-12-24 08:01:00
2:21 AM,-9.4,-16.6,71,30.28,7.0,North,3.5,-,N/A,,Overcast,0,2013-12-24 08:21:00
2:41 AM,-9.4,-16.6,71,30.28,7.0,North,3.5,-,N/A,,Overcast,360,2013-12-24 08:41:00
3:06 AM,-9.4,-16.6,71,30.28,3.0,Calm,Calm,-,N/A,Snow,Light Snow,0,2013-12-24 09:06:00
3:13 AM,-9.4,-16.6,71,30.27,3.0,Calm,Calm,-,N/A,Snow,Light Snow,0,2013-12-24 09:13:00
3:34 AM,-9.4,-16.6,71,30.27,4.0,Calm,Calm,-,N/A,Snow,Light Snow,0,2013-12-24 09:34:00
3:54 AM,-9.4,-14.8,77,30.27,4.0,Calm,Calm,-,N/A,Snow,Light Snow,0,2013-12-24 09:54:00
4:13 AM,-7.6,-13.0,77,30.26,2.5,Calm,Calm,-,N/A,Snow,Light Snow,0,2013-12-24 10:13:00
4:34 AM,-7.6,-13.0,77,30.26,1.5,Calm,Calm,-,N/A,Snow,Light Snow,0,2013-12-24 10:34:00
4:53 AM,-5.8,-11.2,77,30.26,1.5,Calm,Calm,-,N/A,Snow,Light Snow,0,2013-12-24 10:53:00
5:14 AM,-4.0,-9.4,78,30.26,1.8,Calm,Calm,-,N/A,Snow,Light Snow,0,2013-12-24 11:14:00
5:34 AM,-0.4,-5.8,78,30.26,2.0,Calm,Calm,-,N/A,Snow,Light Snow,0,2013-12-24 11:34:00
5:53 AM,1.4,-5.8,72,30.26,1.8,Calm,Calm,-,N/A,Snow,Light Snow,0,2013-12-24 11:53:00
6:14 AM,1.4,-4.0,78,30.25,1.0,Calm,Calm,-,N/A,Snow,Light Snow,0,2013-12-24 12:14:00
6:34 AM,1.4,-4.0,78,30.25,2.0,Calm,Calm,-,N/A,Snow,Light Snow,0,2013-12-24 12:34:00
6:53 AM,1.4,-4.0,78,30.25,1.2,SW,4.6,-,N/A,Snow,Light Snow,220,2013-12-24 12:53:00
7:14 AM,1.4,-5.8,72,30.26,1.5,SW,3.5,-,N/A,Snow,Light Snow,230,2013-12-24 13:14:00
7:34 AM,-0.4,-5.8,78,30.25,1.5,Calm,Calm,-,N/A,Snow,Light Snow,0,2013-12-24 13:34:00
7:53 AM,-0.4,-5.8,78,30.25,2.5,Calm,Calm,-,N/A,Snow,Light Snow,0,2013-12-24 13:53:00
8:14 AM,1.4,-4.0,78,30.25,4.0,South,3.5,-,N/A,Snow,Light Snow,170,2013-12-24 14:14:00
8:33 AM,3.2,-0.4,85,30.24,3.0,SSE,3.5,-,N/A,Snow,Light Snow,150,2013-12-24 14:33:00
8:54 AM,6.8,1.4,79,30.23,3.0,Calm,Calm,-,N/A,Snow,Light Snow,0,2013-12-24 14:54:00
9:14 AM,6.8,1.4,79,30.24,2.0,SE,3.5,-,N/A,Snow,Light Snow,140,2013-12-24 15:14:00
9:33 AM,6.8,3.2,85,30.24,1.5,South,3.5,-,N/A,Snow,Light Snow,180,2013-12-24 15:33:00
9:54 AM,8.6,3.2,79,30.23,0.5,South,4.6,-,N/A,Snow,Snow,170,2013-12-24 15:54:00
10:14 AM,8.6,3.2,79,30.23,0.5,South,8.1,-,N/A,Snow,Snow,180,2013-12-24 16:14:00
10:33 AM,10.4,5.0,79,30.23,1.2,South,9.2,-,N/A,Snow,Light Snow,170,2013-12-24 16:33:00
10:54 AM,10.4,5.0,79,30.22,1.0,South,12.7,20.7,N/A,Snow,Light Snow,190,2013-12-24 16:54:00
11:14 AM,10.4,6.8,85,30.21,1.0,South,12.7,19.6,N/A,Snow,Light Snow,190,2013-12-24 17:14:00
11:34 AM,10.4,6.8,85,30.21,0.8,South,9.2,18.4,N/A,Snow,Light Snow,180,2013-12-24 17:34:00
11:53 AM,10.4,5.0,79,30.20,1.5,South,12.7,24.2,N/A,Snow,Light Snow,180,2013-12-24 17:53:00
12:14 PM,10.4,5.0,79,30.19,2.0,South,15.0,21.9,N/A,Snow,Light Snow,180,2013-12-24 18:14:00
12:33 PM,10.4,5.0,79,30.19,2.0,South,18.4,25.3,N/A,Snow,Light Snow,180,2013-12-24 18:33:00
12:54 PM,10.4,5.0,79,30.18,1.2,South,13.8,20.7,N/A,Snow,Light Snow,190,2013-12-24 18:54:00
1:14 PM,10.4,5.0,79,30.17,1.0,South,12.7,21.9,N/A,Snow,Light Snow,180,2013-12-24 19:14:00
1:33 PM,10.4,5.0,79,30.16,0.8,South,9.2,20.7,N/A,Snow,Snow,190,2013-12-24 19:33:00
1:54 PM,10.4,6.8,85,30.15,1.5,South,13.8,21.9,N/A,Snow,Light Snow,180,2013-12-24 19:54:00
2:13 PM,10.4,6.8,85,30.15,1.8,South,12.7,17.3,N/A,Snow,Light Snow,190,2013-12-24 20:13:00
2:34 PM,10.4,6.8,85,30.14,1.5,South,9.2,-,N/A,Snow,Light Snow,190,2013-12-24 20:34:00
2:54 PM,10.4,6.8,85,30.13,2.0,South,9.2,-,N/A,Snow,Light Snow,190,2013-12-24 20:54:00
3:13 PM,10.4,6.8,85,30.14,2.0,South,12.7,17.3,N/A,Snow,Light Snow,190,2013-12-24 21:13:00
3:34 PM,10.4,6.8,85,30.13,4.0,South,8.1,16.1,N/A,Snow,Light Snow,180,2013-12-24 21:34:00
3:54 PM,10.4,6.8,85,30.13,7.0,South,10.4,20.7,N/A,Snow,Light Snow,180,2013-12-24 21:54:00
4:13 PM,10.4,6.8,85,30.12,2.5,South,11.5,18.4,N/A,Snow,Light Snow,180,2013-12-24 22:13:00
4:34 PM,10.4,6.8,85,30.12,2.5,South,11.5,17.3,N/A,Snow,Light Snow,170,2013-12-24 22:34:00
4:54 PM,12.2,6.8,79,30.12,2.5,South,12.7,18.4,N/A,Snow,Light Snow,180,2013-12-24 22:54:00
5:13 PM,12.2,6.8,79,30.11,2.0,South,11.5,19.6,N/A,Snow,Light Snow,190,2013-12-24 23:13:00
5:34 PM,12.2,6.8,79,30.10,2.0,South,8.1,17.3,N/A,Snow,Light Snow,190,2013-12-24 23:34:00
5:53 PM,10.4,6.8,85,30.09,3.0,South,9.2,16.1,N/A,Snow,Light Snow,180,2013-12-24 23:53:00
6:14 PM,12.2,8.6,85,30.08,5.0,South,8.1,17.3,N/A,Snow,Light Snow,180,2013-12-25 00:14:00
6:34 PM,12.2,8.6,85,30.07,4.0,South,11.5,18.4,N/A,Snow,Light Snow,180,2013-12-25 00:34:00
6:49 PM,12.2,6.8,79,30.07,5.0,South,12.7,21.9,N/A,Snow,Light Snow,180,2013-12-25 00:49:00